Location: Kudlacze
(49.7800°N, 20.0200°E)
Time: 16:54:33
(UTC+00:00)

Envisat - Visible Passes

Search period start: 26 September 2021 00:00
Search period end: 06 October 2021 00:00
Orbit: 764 x 766 km, 98.2° (Epoch: 25 September)

Date Brightness Start Highest point End Pass type
(mag) Time Alt. Az. Time Alt. Az. Time Alt. Az.
26 Sep 4.6 03:20:44 10° NNE 03:25:30 39° E 03:30:14 10° SSE visible
27 Sep 5.7 02:44:38 10° NE 02:48:18 20° E 02:51:58 10° SE visible
28 Sep 3.6 03:45:53 10° NNE 03:50:57 63° ESE 03:55:59 10° S visible
29 Sep 5.0 03:09:22 10° NNE 03:13:54 31° E 03:18:24 10° SSE visible
30 Sep 5.9 02:33:34 10° NE 02:36:39 16° E 02:39:43 10° SE visible
01 Oct 4.0 03:34:25 10° NNE 03:39:24 51° E 03:44:20 10° S visible
02 Oct 5.3 02:58:04 10° NE 03:02:17 26° E 03:06:29 10° SSE visible
03 Oct 6.1 02:22:44 10° ENE 02:24:58 13° E 02:27:11 10° ESE visible
03 Oct 3.1 03:59:40 10° NNE 04:04:47 83° ESE 04:09:53 10° SSW visible
04 Oct 4.4 03:22:59 10° NNE 03:27:49 41° E 03:32:37 10° SSE visible
05 Oct 5.6 02:46:49 10° NE 02:50:39 21° E 02:54:27 10° SE visible
